TimePDT,TemperatureF,Dew PointF,Humidity,Sea Level PressureIn,VisibilityMPH,Wind Direction,Wind SpeedMPH,Gust SpeedMPH,PrecipitationIn,Events,Conditions,WindDirDegrees,DateUTC
12:56 AM,66.0,48.0,52,30.06,10.0,NW,5.8,-,N/A,,Clear,310,2013-07-31 07:56:00
1:56 AM,64.9,46.9,52,30.05,10.0,WNW,4.6,-,N/A,,Clear,300,2013-07-31 08:56:00
2:56 AM,63.0,45.0,52,30.04,10.0,West,6.9,-,N/A,,Clear,260,2013-07-31 09:56:00
3:56 AM,62.1,44.1,52,30.04,10.0,West,3.5,-,N/A,,Clear,260,2013-07-31 10:56:00
4:56 AM,57.0,42.1,57,30.05,10.0,SSE,4.6,-,N/A,,Clear,160,2013-07-31 11:56:00
5:56 AM,57.0,41.0,55,30.05,10.0,Calm,Calm,-,N/A,,Clear,0,2013-07-31 12:56:00
6:56 AM,57.0,42.1,57,30.06,10.0,SSE,5.8,-,N/A,,Clear,160,2013-07-31 13:56:00
7:56 AM,63.0,42.1,46,30.04,10.0,Calm,Calm,-,N/A,,Clear,0,2013-07-31 14:56:00
8:56 AM,69.1,42.1,38,30.04,10.0,Calm,Calm,-,N/A,,Clear,0,2013-07-31 15:56:00
9:56 AM,73.9,41.0,30,30.02,10.0,NNW,4.6,-,N/A,,Clear,340,2013-07-31 16:56:00
10:56 AM,75.0,39.9,28,30.02,10.0,Variable,4.6,-,N/A,,Clear,0,2013-07-31 17:56:00
11:56 AM,78.1,37.0,23,30.00,10.0,North,8.1,-,N/A,,Partly Cloudy,350,2013-07-31 18:56:00
12:56 PM,81.0,34.0,18,29.98,10.0,Variable,5.8,-,N/A,,Clear,0,2013-07-31 19:56:00
1:56 PM,79.0,37.0,22,29.99,10.0,North,10.4,-,N/A,,Mostly Cloudy,350,2013-07-31 20:56:00
2:56 PM,81.0,30.9,16,29.95,10.0,North,9.2,-,N/A,,Partly Cloudy,10,2013-07-31 21:56:00
3:56 PM,81.0,28.9,15,29.93,10.0,North,12.7,20.7,N/A,,Clear,10,2013-07-31 22:56:00
4:56 PM,71.1,42.1,35,30.06,8.0,South,11.5,33.4,0.00,Rain,Light Rain,180,2013-07-31 23:56:00
5:10 PM,71.6,41.0,33,30.12,10.0,NW,4.6,31.1,0.00,,Overcast,310,2013-08-01 00:10:00
5:56 PM,71.1,43.0,36,30.04,10.0,North,12.7,-,0.00,,Scattered Clouds,360,2013-08-01 00:56:00
6:56 PM,71.1,41.0,34,30.05,10.0,Calm,Calm,-,N/A,,Mostly Cloudy,0,2013-08-01 01:56:00
7:56 PM,69.1,44.1,40,30.02,10.0,East,4.6,-,0.00,Rain,Light Rain,80,2013-08-01 02:56:00
8:56 PM,66.0,48.0,52,30.01,10.0,SW,3.5,-,0.00,,Clear,220,2013-08-01 03:56:00
9:56 PM,63.0,46.9,56,29.99,10.0,NE,5.8,-,N/A,,Scattered Clouds,40,2013-08-01 04:56:00
10:56 PM,60.1,48.0,64,29.97,10.0,East,6.9,-,0.00,,Mostly Cloudy,90,2013-08-01 05:56:00
11:56 PM,61.0,46.9,60,29.98,10.0,Calm,Calm,-,N/A,,Mostly Cloudy,0,2013-08-01 06:56:00